Location: Balsareny
(41.8670°N, 1.8830°E)
Time: 11:39:13
(UTC+01:00)

Envisat - Pass Details

Date: 07 December 2021
Orbit: 764 x 766 km, 98.2° (Epoch: 15 January)

Event Time Altitude Azimuth Distance (km) Brightness Sun altitude
Rises 04:41:59 0° 30° (NNE) 3,239 6.6 -37.3°
Reaches altitude 10° 04:45:02 10° 49° (NE) 2,307 6.0 -36.7°
Maximum altitude 04:48:28 18° 91° (E) 1,807 5.5 -36.0°
Drops below altitude 10° 04:51:53 10° 134° (SE) 2,295 5.9 -35.4°
Sets 04:54:53 0° 153° (SSE) 3,215 6.5 -34.9°
